Total_Precipitation_Accumulation
0.00 0.00 0.00 0.00 0.00 0.00 0.00 0.00 0.00 0.00 0.00 0.00 0.00 0.00 0.00 0.00 0.00 0.00 0.00 0.00 0.00 0.00 0.00 0.00 0.00 0.00 0.00 0.00 0.00 0.00 0.00 0.00 0.00 0.00 0.00 0.00 0.00 0.00 0.00 0.00 0.00 0.00 0.00 0.00 0.00
0.00 0.00 0.00 0.00 0.00 0.00 0.00 0.00 0.00 0.00 0.00 0.00 0.00 0.00 0.00 0.00 0.00 0.00 0.00 0.00 0.00 0.00 0.00 0.00 0.00 0.00 0.00 0.00 0.00 0.00 0.00 0.00 0.00 0.00 0.00 0.00 0.00 0.00 0.00 0.00 0.00 0.00 0.00 0.00 0.00
0.00 0.00 0.00 0.00 0.00 0.00 0.00 0.00 0.00 0.00 0.00 0.00 0.00 0.00 0.00 0.00 0.00 0.00 0.00 0.00 0.00 0.00 0.00 0.00 0.00 0.00 0.00 0.00 0.00 0.00 0.00 0.00 0.00 0.00 0.00 0.00 0.00 0.00 0.00 0.00 0.00 0.00 0.00 0.00 0.00
0.00 0.00 0.00 0.01 0.01 0.01 0.00 0.00 0.00 0.00 0.00 0.00 0.00 0.00 0.00 0.00 0.00 0.00 0.00 0.00 0.00 0.00 0.00 0.00 0.00 0.00 0.00 0.00 0.00 0.00 0.00 0.00 0.00 0.00 0.00 0.00 0.00 0.00 0.00 0.00 0.00 0.00 0.00 0.00 0.00
0.00 0.00 0.00 0.01 0.01 0.01 0.00 0.00 0.00 0.00 0.00 0.00 0.00 0.00 0.00 0.00 0.00 0.00 0.00 0.00 0.00 0.00 0.00 0.00 0.00 0.00 0.00 0.00 0.00 0.00 0.00 0.00 0.00 0.00 0.00 0.00 0.00 0.00 0.00 0.00 0.00 0.00 0.00 0.00 0.00
0.00 0.00 0.00 0.00 0.00 0.00 0.00 0.00 0.00 0.00 0.00 0.00 0.00 0.00 0.00 0.00 0.00 0.00 0.00 0.00 0.00 0.00 0.00 0.00 0.00 0.00 0.00 0.00 0.00 0.00 0.00 0.00 0.00 0.00 0.00 0.00 0.00 0.00 0.00 0.00 0.00 0.00 0.00 0.00 0.00
0.00 0.00 0.00 0.00 0.00 0.00 0.00 0.00 0.00 0.00 0.00 0.00 0.00 0.00 0.02 0.00 0.00 0.00 0.00 0.00 0.00 0.00 0.00 0.00 0.00 0.00 0.00 0.00 0.00 0.00 0.00 0.00 0.00 0.00 0.00 0.00 0.00 0.00 0.00 0.00 0.00 0.00 0.00 0.00 0.00
0.00 0.00 0.00 0.00 0.00 0.00 0.00 0.00 0.00 0.00 0.00 0.00 0.00 0.00 0.00 0.00 0.00 0.00 0.00 0.00 0.00 0.00 0.00 0.00 0.00 0.00 0.00 0.00 0.00 0.00 0.00 0.00 0.00 0.00 0.00 0.00 0.00 0.00 0.00 0.00 0.00 0.00 0.00 0.00 0.00
0.05 0.00 0.00 0.00 0.00 0.00 0.00 0.00 0.00 0.00 0.00 0.00 0.00 0.00 0.00 0.00 0.00 0.00 0.00 0.00 0.00 0.00 0.00 0.00 0.00 0.00 0.00 0.00 0.00 0.00 0.00 0.00 0.00 0.00 0.00 0.00 0.00 0.00 0.00 0.00 0.00 0.00 0.00 0.00 0.00
0.09 0.05 0.00 0.00 0.00 0.00 0.00 0.00 0.00 0.00 0.00 0.00 0.00 0.00 0.00 0.00 0.00 0.00 0.00 0.00 0.00 0.00 0.00 0.00 0.00 0.00 0.00 0.00 0.00 0.00 0.00 0.00 0.00 0.00 0.00 0.00 0.00 0.00 0.00 0.00 0.00 0.00 0.00 0.00 0.00
0.20 0.12 0.05 0.01 0.00 0.00 0.01 0.01 0.00 0.00 0.00 0.00 0.00 0.00 0.00 0.00 0.00 0.00 0.00 0.00 0.00 0.00 0.00 0.00 0.00 0.00 0.00 0.00 0.00 0.00 0.00 0.00 0.00 0.00 0.00 0.00 0.00 0.00 0.00 0.00 0.00 0.00 0.00 0.00 0.00
0.60 0.41 0.18 0.08 0.01 0.00 0.00 0.00 0.00 0.00 0.00 0.00 0.00 0.00 0.00 0.00 0.00 0.00 0.00 0.00 0.00 0.00 0.00 0.00 0.00 0.00 0.00 0.00 0.00 0.00 0.00 0.00 0.00 0.00 0.00 0.00 0.00 0.00 0.00 0.00 0.00 0.00 0.00 0.00 0.00
0.45 0.59 0.58 0.30 0.10 0.03 0.00 0.00 0.00 0.00 0.00 0.00 0.00 0.00 0.00 0.00 0.00 0.00 0.00 0.00 0.00 0.00 0.00 0.00 0.00 0.00 0.00 0.00 0.00 0.00 0.00 0.00 0.00 0.00 0.00 0.00 0.00 0.00 0.00 0.00 0.00 0.00 0.00 0.00 0.00
0.55 0.59 0.79 0.94 0.77 0.13 0.02 0.00 0.00 0.01 0.17 0.12 0.00 0.00 0.00 0.00 0.00 0.00 0.00 0.00 0.00 0.00 0.01 0.00 0.00 0.00 0.00 0.00 0.01 0.01 0.00 0.00 0.00 0.03 0.01 0.01 0.02 0.00 0.00 0.00 0.00 0.00 0.00 0.00 0.00
0.77 0.95 1.16 1.10 0.69 0.23 0.04 0.01 0.03 0.15 0.81 0.31 0.01 0.00 0.00 0.00 0.00 0.00 0.00 0.00 0.00 0.00 0.01 0.00 0.00 0.00 0.00 0.00 0.00 0.00 0.00 0.00 0.02 0.05 0.04 0.00 0.11 0.00 0.00 0.00 0.00 0.00 0.00 0.00 0.01
1.01 1.18 1.45 1.30 0.84 0.28 0.04 0.10 0.39 1.00 1.60 0.36 0.00 0.00 0.00 0.00 0.00 0.00 0.00 0.00 0.00 0.00 0.00 0.00 0.00 0.00 0.00 0.00 0.00 0.00 0.00 0.01 0.03 0.06 0.14 0.01 0.10 0.04 0.00 0.00 0.00 0.00 0.00 0.00 0.00
1.39 1.43 1.50 1.05 1.09 0.51 0.40 0.58 1.28 1.94 0.91 0.14 0.00 0.00 0.00 0.00 0.00 0.00 0.00 0.00 0.00 0.00 0.00 0.00 0.00 0.00 0.00 0.00 0.00 0.00 0.01 0.05 0.05 0.03 0.04 0.00 0.03 0.02 0.00 0.00 0.00 0.00 0.00 0.00 0.00
1.60 1.80 1.75 1.37 0.94 0.64 0.51 0.94 2.30 1.45 0.36 0.01 0.00 0.00 0.00 0.00 0.00 0.00 0.00 0.00 0.00 0.00 0.01 0.01 0.00 0.00 0.00 0.00 0.00 0.00 0.02 0.06 0.04 0.00 0.00 0.00 0.01 0.00 0.00 0.00 0.00 0.00 0.00 0.00 0.00
1.78 2.30 2.41 2.27 1.74 1.37 1.10 2.10 2.09 0.73 0.09 0.01 0.02 0.01 0.00 0.00 0.00 0.00 0.00 0.01 0.00 0.01 0.11 0.21 0.11 0.00 0.00 0.00 0.00 0.00 0.04 0.02 0.23 0.08 0.17 0.02 0.00 0.00 0.00 0.00 0.00 0.00 0.00 0.00 0.00
1.64 2.19 2.59 2.36 2.05 1.76 1.64 1.95 1.24 0.31 0.03 0.02 0.12 0.03 0.00 0.00 0.00 0.00 0.00 0.00 0.01 0.04 0.22 0.50 0.54 0.05 0.00 0.02 0.01 0.03 0.02 0.13 0.29 0.45 0.30 0.09 0.05 0.06 0.02 0.00 0.00 0.00 0.00 0.00 0.00
1.28 2.04 2.42 2.02 2.41 2.42 2.53 1.95 1.18 0.39 0.12 0.13 0.13 0.10 0.03 0.00 0.00 0.00 0.02 0.04 0.06 0.04 0.11 0.31 0.53 0.21 0.01 0.02 0.06 0.14 0.26 0.37 0.63 0.81 0.74 0.48 0.26 0.25 0.13 0.08 0.07 0.02 0.00 0.00 0.00
1.25 1.70 2.01 1.97 2.80 2.85 2.09 1.43 0.88 0.46 0.38 0.41 0.33 0.13 0.09 0.05 0.05 0.04 0.05 0.14 0.16 0.17 0.18 0.31 0.45 0.41 0.04 0.01 0.08 0.29 0.65 0.87 1.44 1.38 1.27 1.32 1.12 0.79 0.50 0.30 0.21 0.14 0.07 0.03 0.02
1.37 1.54 1.93 1.73 1.92 1.84 1.40 1.16 0.87 0.54 0.45 0.51 0.43 0.27 0.19 0.17 0.27 0.14 0.11 0.12 0.08 0.11 0.16 0.18 0.35 0.41 0.19 0.10 0.16 0.42 0.54 0.71 0.89 1.02 0.95 1.05 0.87 0.70 0.50 0.35 0.31 0.30 0.20 0.10 0.07
1.25 1.90 2.61 2.54 1.37 0.95 0.72 0.71 0.68 0.52 0.35 0.36 0.44 0.27 0.31 0.43 0.34 0.27 0.07 0.05 0.06 0.08 0.09 0.16 0.18 0.26 0.31 0.16 0.14 0.19 0.18 0.31 0.69 0.71 0.60 0.40 0.30 0.13 0.08 0.06 0.05 0.04 0.02 0.02 0.01
1.25 1.17 1.18 1.47 1.19 0.77 0.43 0.54 0.44 0.55 0.61 0.43 0.43 0.26 0.23 0.44 0.39 0.23 0.09 0.06 0.04 0.04 0.08 0.23 0.18 0.13 0.14 0.03 0.01 0.03 0.01 0.01 0.09 0.14 0.32 0.11 0.05 0.04 0.05 0.03 0.01 0.00 0.00 0.00 0.00
1.22 0.85 0.45 0.20 0.22 0.31 0.37 0.48 0.29 0.34 0.55 0.53 0.43 0.41 0.28 0.24 0.16 0.15 0.09 0.06 0.08 0.04 0.12 0.20 0.23 0.12 0.07 0.01 0.01 0.01 0.00 0.00 0.00 0.01 0.02 0.01 0.01 0.00 0.01 0.01 0.00 0.00 0.00 0.00 0.00
0.62 0.31 0.30 0.38 0.25 0.25 0.31 0.31 0.27 0.22 0.43 0.26 0.23 0.36 0.43 0.31 0.18 0.13 0.11 0.12 0.08 0.05 0.09 0.18 0.20 0.18 0.11 0.01 0.02 0.01 0.00 0.00 0.00 0.01 0.01 0.01 0.00 0.00 0.00 0.00 0.00 0.00 0.00 0.00 0.00